Regional Weather Roundup
Issued by NWS Cleveland, OH

Home | Current Version | Previous Version | Graphics & Text | Print | Product List | Glossary On
Versions: 1 2 3 4 5 6 7 8 9 10 11 12 13 14 15 16 17 18 19 20 21 22 23 24 25 26 27 28 29 30 31 32 33 34 35 36 37 38 39 40 41 42 43 44 45 46 47 48 49 50
000
ASUS41 KCLE 181802
RWRCLE
OHIO REGIONAL WEATHER ROUNDUP
NATIONAL WEATHER SERVICE CLEVELAND, OH
200 PM EDT FRI APR 18 2014

NOTE: "FAIR" INDICATES FEW OR NO CLOUDS BELOW 12,000 FEET WITH NO
SIGNIFICANT WEATHER AND/OR OBSTRUCTIONS TO VISIBILITY.

OHZ001>008-015>018-024>027-034-035-043-044-181900-
   NORTHWEST OHIO

CITY           SKY/WX    TMP DP  RH WIND       PRES   REMARKS
DEFIANCE       PTSUNNY   65  39  38 W9        30.26F
FINDLAY        MOSUNNY   67  40  37 VRB6      30.25F
TOLEDO EXPRESS PTSUNNY   63  40  42 W13G22    30.26F
TOLEDO EXEC    PTSUNNY   66  40  38 NW15G22   30.26F
LIMA           MOSUNNY   67  41  38 SW12      30.26F
$$

OHZ009>014-019>023-028>033-038-089-181900-
   NORTHEAST OHIO

CITY           SKY/WX    TMP DP  RH WIND       PRES   REMARKS
CLE-HOPKINS    MOSUNNY   62  40  44 VRB3      30.29F
CLE-LAKEFRONT  MOSUNNY   59  43  55 N6        30.26F
CUY CO. ARPT   MOSUNNY   61  41  48 E7        30.28F
LORAIN-ELYRIA  MOSUNNY   66  41  40 E5        30.26F
ASHTABULA      PTSUNNY   57  37  47 NW8       30.27S
AKRON-CANTON   PTSUNNY   65  36  34 NW8       30.25F
WOOSTER        PTSUNNY   64  38  38 MISG      30.26F
MANSFIELD      MOSUNNY   64  38  38 W8        30.27F
YOUNGSTOWN     CLOUDY    63  32  31 SW7       30.25F
$$

OHZ042-051>053-060>062-070>072-077>081-181900-
  SOUTHWEST OHIO

CITY           SKY/WX    TMP DP  RH WIND       PRES   REMARKS
CINC-COVINGTON PTSUNNY   67  34  29 N6        30.28F
CINC-LUNKEN    PTSUNNY   67  39  35 VRB6      30.28F
HAMILTON       PTSUNNY   69  40  34 E5        30.28F
DAYTON         PTSUNNY   67  38  34 VRB5      30.28F
WRIGHT-PAT AFB DRIZZLE   66  37  34 NW9       30.27F
DAYTON GENERAL PTSUNNY   67  37  33 NW10      30.27F
WILMINGTON     PTSUNNY   66  36  32 W9        30.28S
$$

OHZ036-037-039>041-045>050-054>059-063>069-073>076-082>088-181900-
  CENTRAL AND SOUTHEAST OHIO

CITY           SKY/WX    TMP DP  RH WIND       PRES   REMARKS
COLUMBUS       PTSUNNY   67  35  30 SW7       30.27F
OSU AIRPORT    PTSUNNY   67  36  31 VRB5      30.26F
BOLTON FIELD   SUNNY     66  39  37 W7        30.27F
RICKENBACK AFB NOT AVBL
NEWARK         PTSUNNY   67  34  29 W10       30.26F
MARION         MOSUNNY   64  37  36 VRB3      30.27F
LANCASTER      PTSUNNY   67  36  31 W3        30.27F
ZANESVILLE     PTSUNNY   67  34  29 VRB7      30.26F
NEW PHILLY     PTSUNNY   66  33  29 W5        30.26F
$$



USA.gov is the U.S. government's official web portal to all federal, state and local government web resources and services.